Location: Campagne
(50.6130°N, 1.9949°E)
Time: 01:56:36
(UTC+00:00)

Daily predictions for brighter satellites

Satellite Brightness Start Highest point End
(mag) Time Altitude Azimuth Time Altitude Azimuth Time Altitude Azimuth
USA 215 3.9 03:20:53 10° E 03:25:43 49° ENE 03:25:43 49° ENE
Cosmos 1943 Rocket 2.9 04:06:38 48° SE 04:07:17 51° ESE 04:12:46 10° NE
CZ-2C R/B 3.8 04:05:09 10° SE 04:10:13 40° ENE 04:13:24 20° N
CENTAUR R/B 2.8 04:16:08 54° S 04:17:19 64° SE 04:24:24 10° NE
Cosmos 2297 4.0 04:21:07 54° SSE 04:22:09 65° ESE 04:27:50 10° NE
NOSS 3-2 (A) 3.2 04:27:49 79° SSW 04:28:13 86° SE 04:34:52 10° NE
Cosmos 2278 Rocket 3.6 04:33:50 26° N 04:33:50 26° N 04:36:41 10° NNE
Envisat 4.1 04:29:57 10° NNE 04:34:49 44° E 04:39:39 10° S
NOSS 3-2 (C) 3.7 04:33:35 36° S 04:35:51 61° SE 04:42:16 10° NE
SKYMED 2 4.1 04:32:38 10° SSE 04:36:53 56° ENE 04:37:12 54° NE
Cosmos 2098 Rocket 4.4 04:39:01 10° SSE 04:42:43 39° E 04:47:21 10° NNE
Meteor 2-3 Rocket 3.7 04:37:31 10° S 04:43:12 86° E 04:48:58 10° NNE
Cosmos 968 Rocket 3.7 04:42:38 19° S 04:46:21 67° ESE 04:51:27 10° NNE
Landsat 5 4.2 04:42:07 10° SSE 04:46:32 56° ENE 04:48:26 31° N
Cosmos 921 Rocket 3.2 04:50:35 63° SSE 04:50:35 63° SSE 04:54:20 10° SSE
DNEPR-1 R/B 3.9 04:53:14 62° NNW 04:53:59 77° NE 04:59:25 10° SE
Meteor 1-26 Rocket 4.2 04:53:50 40° NNW 04:55:57 67° W 05:01:42 10° S
Cosmos 1812 3.0 04:56:57 62° SE 04:56:57 62° SE 05:00:15 10° SSE
H-2A R/B 4.1 04:53:48 10° ESE 04:57:21 26° ENE 05:00:59 10° N
Cosmos 1151 Rocket 3.0 05:01:35 38° N 05:03:16 80° E 05:07:38 10° SSE
USA 238 DEB 3.5 05:00:10 28° SW 05:03:53 88° NW 05:10:52 10° NE
USA 238 3.5 05:00:13 28° SW 05:03:59 88° NW 05:10:58 10° NE
Cosmos 2344 3.5 05:03:34 36° WSW 05:06:46 65° NW 05:14:57 10° NE
Cosmos 1766 Rocket 4.2 05:03:11 10° S 05:07:24 55° E 05:11:40 10° NNE
USA 215 3.2 05:03:50 10° SE 05:10:20 67° SW 05:13:03 37° WNW
Kosmos-917 3.6 05:12:30 75° W 05:12:39 79° NW 05:17:55 10° NE
Meteor 1-31 Rocket 3.0 05:09:29 10° NNE 05:13:22 71° ESE 05:17:16 10° S
Cosmos 2279 Rocket 3.9 05:07:33 10° N 05:13:48 87° E 05:20:00 10° S
Cosmos 2297 Rocket 4.3 05:09:52 10° NNW 05:13:58 20° NE 05:18:03 10° E
Cosmos 1328 Rocket 3.6 05:12:41 18° N 05:15:57 78° E 05:20:18 10° SSE
IRAS Rocket 4.5 05:13:17 10° SSE 05:18:44 69° ENE 05:24:12 10° NNW
SJ-12 3.8 05:14:39 10° N 05:18:48 76° WNW 05:22:56 10° SSW
FALCON 9 DEB 3.1 05:21:07 70° SSW 05:21:19 74° SSE 05:24:43 10° ENE
Cosmos 2369 Rocket 2.2 05:16:11 10° SSW 05:21:46 83° ESE 05:27:24 10° NNE
Cosmos 1862 3.4 05:19:44 10° S 05:23:40 77° E 05:27:38 10° NNE
COSMO-SKYMED 1 2.7 05:20:44 10° S 05:24:58 51° W 05:25:48 44° WNW
H-2A R/B 2.6 05:23:07 10° N 05:26:48 59° WNW 05:30:28 10° SSW
Cosmos 1634 Rocket 4.1 05:22:44 10° NNW 05:28:47 51° W 05:34:45 10° SSW
Lacrosse 4 Rocket 4.0 05:34:20 10° N 05:36:07 12° NNE 05:37:53 10° NE
CZ-4B R/B 4.0 05:32:42 10° NNE 05:36:07 40° E 05:39:30 10° S
Tsikada Rocket 4.4 05:33:20 10° SW 05:39:07 40° WNW 05:45:01 10° N
CZ-4B R/B 3.4 05:38:05 10° SE 05:40:57 27° ENE 05:43:48 10° N
MOS 1-B Rocket 4.5 05:35:45 10° SSW 05:41:25 35° W 05:44:44 20° NW
YAOGAN 6 4.0 05:38:24 10° N 05:40:14 24° NNW 05:40:14 24° NNW
Cosmos 783 Rocket 4.4 05:37:36 15° NNW 05:42:01 89° ENE 05:47:14 10° SSE
Cosmos 1408 Rocket 4.0 05:38:33 10° S 05:42:47 61° E 05:47:03 10° NNE
Cosmos 1656 Rocket 3.5 05:40:01 10° SSW 05:45:26 90° NW 05:50:56 10° NNE
Gblst 52 Del rocket 4.5 05:41:33 23° W 05:45:34 87° NNW 05:52:40 10° E
CZ-4C R/B 3.0 05:42:53 10° S 05:45:53 42° W 05:46:01 42° W
Cosmos 1503 Rocket 4.2 05:40:41 10° SSW 05:45:56 77° ESE 05:51:18 10° NNE
DMSP B5D2-2 4.0 05:41:10 10° SSE 05:46:23 84° WSW 05:51:38 10° NNW
Cosmos 2227 Rocket 4.0 05:45:01 10° NNW 05:49:31 23° NE 05:53:59 10° E
CZ-2C R/B 3.2 05:45:30 10° SSW 05:50:33 37° W 05:54:54 13° NNW
Cosmos 1943 Rocket 2.8 05:48:15 22° W 05:51:15 36° NW 05:56:28 10° NNE
Cosmos 1486 Rocket 4.0 05:48:23 10° SW 05:53:38 61° WNW 05:58:53 10° NNE
Cosmos 1515 Rocket 3.4 05:51:53 10° NNW 05:56:16 76° W 06:00:35 10° S
SL-8 R/B 4.4 05:54:22 22° W 05:57:03 43° SSW 06:01:34 10° SE
Meteor 2-15 4.4 05:51:26 10° NNW 05:57:28 68° W 06:03:27 10° S
FALCON 9 DEB 2.8 05:56:51 38° WNW 05:57:40 56° N 06:00:32 10° ENE
Cosmos 2180 Rocket 4.5 05:53:00 10° NNW 05:59:04 59° W 06:05:04 10° S
Meteor 1-27 Rocket 3.7 05:53:34 10° NNW 05:59:13 89° WSW 06:04:57 10° S
COSMOS 2487 3.5 06:00:05 10° N 06:03:19 41° ENE 06:06:31 10° SE
Cosmos 773 Rocket 3.9 05:58:38 11° NNW 06:03:40 70° WSW 06:08:49 10° SSE
FALCON 9 DEB 2.9 06:03:16 32° WNW 06:04:16 50° N 06:07:05 10° ENE
FALCON 9 DEB 3.0 06:05:15 30° WNW 06:06:21 49° N 06:09:08 10° ENE
SJ 16-02 2.4 06:03:04 10° S 06:07:16 48° ESE 06:11:31 10° NNE
NOAA 11 4.1 06:02:11 10° N 06:07:39 72° WNW 06:13:07 10° SSW
CENTAUR R/B 3.1 06:03:21 15° W 06:08:25 45° NNW 06:15:42 10° NE
Alouette 2 Rocket 3.4 06:05:40 10° NNW 06:09:47 77° ENE 06:13:19 10° SSE
NOAA 12 4.1 06:07:32 10° NNE 06:12:51 87° ESE 06:18:06 10° SSW
Envisat 3.7 06:09:15 10° N 06:13:43 32° WNW 06:18:09 10° SW
Meteor 2-19 Rocket 4.4 06:07:48 10° SSW 06:13:52 79° W 06:19:58 10° N
Cosmos 1340 Rocket 3.2 06:11:38 10° S 06:15:33 68° E 06:19:32 10° NNE
SL-27 R/B 2.7 06:14:04 14° NW 06:16:58 52° WSW 06:20:25 10° S
Cosmos 2278 Rocket 4.0 06:15:42 12° NW 06:17:19 13° NNW 06:19:52 10° N
Cosmos 1500 Rocket 3.7 06:14:32 10° S 06:19:00 83° E 06:23:30 10° NNE
Cosmos 1939 Rocket 2.8 06:15:28 10° NNE 06:19:27 89° WNW 06:23:21 10° SSW
NOSS 3-2 (A) 4.2 06:15:14 15° W 06:19:50 36° NNW 06:26:16 10° NE
FALCON 9 DEB 3.0 06:21:30 19° WNW 06:23:21 51° N 06:26:11 10° ENE
Cosmos 2098 Rocket 4.1 06:20:30 10° WSW 06:23:59 25° WNW 06:28:11 10° N
NOSS 3-2 (C) 3.9 06:21:27 10° W 06:27:05 43° NNW 06:33:39 10° NE
Cosmos 968 Rocket 4.5 06:24:28 10° WSW 06:28:37 24° NW 06:32:47 10° N
Okean O Rocket 4.0 06:25:56 10° NE 06:29:45 27° E 06:33:31 10° SSE
Cosmos 1805 Rocket 4.0 06:26:18 10° S 06:30:39 66° E 06:34:59 10° NNE
Sich 1 3.9 06:28:19 10° S 06:32:30 54° E 06:36:41 10° NNE
H-2A R/B 2.5 06:29:05 10° S 06:33:07 42° W 06:37:17 10° NNW
Cosmos 2026 Rocket 4.4 06:27:11 10° S 06:33:29 71° E 06:39:45 10° NNE
ATLAS 3B R/B 3.5 06:29:03 10° SSW 06:35:23 55° ESE 06:42:04 10° NE
ADEOS 4.0 06:33:02 10° N 06:37:51 38° WNW 06:42:38 10° SW
Cosmos 1174 4.2 06:35:47 10° SSW 06:38:39 49° ESE 06:41:44 10° NE
Cosmos 158 Rocket 4.0 06:33:58 10° NNW 06:39:03 76° WSW 06:44:16 10° SSE
ATLAS 5 CENTAUR R/B 2.3 06:35:22 10° SSW 06:39:08 53° SE 06:43:25 10° NE
Cosmos 1500 4.1 06:35:26 10° S 06:39:08 52° E 06:42:51 10° NNE
Cosmos 1515 3.8 06:41:03 10° NNW 06:44:45 52° W 06:48:27 10° S
Meteor PRIRODA 4.4 06:42:10 10° N 06:45:19 29° WNW 06:48:29 10° SW
Okean 1 3.3 06:41:46 10° N 06:45:45 89° E 06:49:42 10° S
Cosmos 1354 Rocket 4.3 06:41:09 10° SW 06:46:14 46° WNW 06:51:22 10° NNE
CZ-2C R/B 3.3 06:41:45 10° N 06:46:16 42° WNW 06:50:57 10° SW
Meteor 1-31 Rocket 4.4 06:45:08 10° NNW 06:47:15 14° WNW 06:49:22 10° W
Meteor 1-18 Rocket 4.5 06:46:00 10° NNW 06:51:56 83° ENE 06:57:42 10° SSE
USA 238 DEB 4.3 06:49:33 10° W 06:55:41 36° NNW 07:02:11 10° NE
USA 238 4.3 06:49:39 10° W 06:55:46 36° NNW 07:02:17 10° NE
OPS 6432 4.2 06:55:04 10° NW 06:58:01 86° NE 07:01:20 10° SE
FALCON 9 DEB 3.3 06:54:51 10° W 06:58:12 55° N 07:01:33 10° ENE
Cosmos 2297 Rocket 2.5 06:53:22 10° NNW 06:59:03 71° ENE 07:04:43 10° SE
SMAP 3.2 06:55:02 10° N 06:59:33 51° WNW 07:04:02 10° SW
FengYun 1-2 T 4.4 06:57:25 10° N 07:02:43 50° WNW 07:07:58 10° SW
